Williamsport, PA

6:59 AM EDT on May 25, 2017 (GMT -0400)
Williamsport Rgnl

Weather History for KIPT - September, 2013

Change the Weather History Date:

Friday, September 20, 2013

  Actual Average Record
Temperature  
Mean Temperature 66 °F 62 °F  
Max Temperature 80 °F 72 °F 90 °F (1895)
Min Temperature 51 °F 52 °F 34 °F (1929)
Degree Days  
Heating Degree Days 0 5  
Month to date heating degree days 70 50  
Since 1 July heating degree days 75 64  
Cooling Degree Days 1 1  
Month to date cooling degree days 74 54  
Year to date cooling degree days 833 688  
Growing Degree Days 16 (Base 50)    
Moisture  
Dew Point 54 °F    
Average Humidity 73    
Maximum Humidity 100    
Minimum Humidity 45    
Precipitation  
Precipitation 0.00 in 0.14 in 1.62 in (1977)
Month to date precipitation 1.30 2.78  
Year to date precipitation 22.92 29.81  
Sea Level Pressure  
Sea Level Pressure 30.03 in    
Wind  
Wind Speed 5 mph (SE)    
Max Wind Speed 21 mph    
Max Gust Speed 29 mph    
Visibility 6 miles    
Events Fog    
T = Trace of Precipitation, MM = Missing Value Source: NWS Daily Summary

Daily Weather History Graph

Daily Weather History Graph

Search for Another Location

Airport or City:

Trip Planner

Search our weather history database for the weather conditions in past years. The results will help you decide how hot, cold, wet, or windy it might be!

Date:

Astronomy

Sep. 20, 2013 Rise Set
Actual Time 6:53 AM EDT 7:07 PM EDT
Civil Twilight 6:25 AM EDT 7:35 PM EDT
Nautical Twilight 5:53 AM EDT 8:07 PM EDT
Astronomical Twilight 5:20 AM EDT 8:40 PM EDT
Moon 7:39 PM EDT (9/20) 8:06 AM EDT (9/20)
Length of Visible Light 13h 09m
Length of Day
12h 14m
Full, 98% of the Moon is Illuminated
Sep 20
Full
Sep 26
Last Quarter
Oct 4
New
Oct 11
First Quarter
Oct 18
Full

Hourly Weather History & Observations

Time (EDT) Temp. Dew Point Humidity Pressure Visibility Wind Dir Wind Speed Gust Speed Precip Events Conditions
12:54 AM 54.0 °F 52.0 °F 93% 30.07 in 10.0 mi Calm Calm - N/A   Clear
1:54 AM 53.1 °F 51.1 °F 93% 30.08 in 8.0 mi Calm Calm - N/A   Clear
2:54 AM 53.1 °F 51.1 °F 93% 30.07 in 8.0 mi Calm Calm - N/A   Mostly Cloudy
3:54 AM 52.0 °F 50.0 °F 93% 30.08 in 8.0 mi Calm Calm - N/A   Mostly Cloudy
4:02 AM 51.8 °F 48.2 °F 88% 30.09 in 8.0 mi Calm Calm - N/A   Scattered Clouds
4:54 AM 52.0 °F 50.0 °F 93% 30.09 in 7.0 mi Calm Calm - N/A   Mostly Cloudy
5:41 AM 53.6 °F 51.8 °F 94% 30.08 in 1.8 mi Calm Calm - N/A   Overcast
5:49 AM 53.6 °F 51.8 °F 94% 30.08 in 0.2 mi Calm Calm - N/A Fog Fog
5:50 AM 53.1 °F 52.0 °F 96% 30.08 in 0.2 mi Calm Calm - N/A Fog Fog
5:59 AM 53.6 °F 51.8 °F 94% 30.08 in 0.5 mi Calm Calm - N/A Fog Fog
6:09 AM 51.8 °F 51.8 °F 100% 30.08 in 2.5 mi Calm Calm - N/A   Overcast
6:16 AM 51.8 °F 51.8 °F 100% 30.08 in 4.0 mi Calm Calm - N/A   Overcast
6:40 AM 51.8 °F 50.0 °F 94% 30.08 in 1.8 mi Calm Calm - N/A   Overcast
6:50 AM 51.8 °F 51.8 °F 100% 30.08 in 0.5 mi Calm Calm - N/A Fog Fog
6:54 AM 52.0 °F 51.1 °F 97% 30.07 in 0.8 mi North 4.6 mph - N/A   Overcast
7:17 AM 51.8 °F 51.8 °F 100% 30.08 in 0.2 mi Calm Calm - N/A Fog Fog
7:49 AM 53.6 °F 51.8 °F 94% 30.07 in 0.5 mi Calm Calm - N/A Fog Fog
7:54 AM 53.1 °F 52.0 °F 96% 30.08 in 0.5 mi Calm Calm - N/A Fog Fog
8:01 AM 53.6 °F 51.8 °F 94% 30.07 in 0.2 mi Calm Calm - N/A Fog Fog
8:54 AM 53.1 °F 53.1 °F 100% 30.08 in 0.2 mi Calm Calm - N/A Fog Fog
9:40 AM 55.4 °F 53.6 °F 94% 30.08 in 1.0 mi Calm Calm - N/A   Overcast
9:51 AM 55.4 °F 53.6 °F 94% 30.08 in 2.5 mi Calm Calm - N/A   Overcast
9:54 AM 55.0 °F 54.0 °F 96% 30.08 in 2.5 mi Calm Calm - N/A   Overcast
10:12 AM 55.4 °F 55.4 °F 100% 30.08 in 3.0 mi Calm Calm - N/A   Overcast
10:32 AM 60.8 °F 55.4 °F 82% 30.07 in 6.0 mi Calm Calm - N/A   Haze
10:54 AM 63.0 °F 55.9 °F 78% 30.06 in 9.0 mi Calm Calm - N/A   Clear
11:54 AM 71.1 °F 57.0 °F 61% 30.04 in 10.0 mi Calm Calm - N/A   Clear
12:54 PM 75.0 °F 57.0 °F 53% 30.01 in 10.0 mi SSE 13.8 mph 19.6 mph N/A   Clear
1:54 PM 75.9 °F 57.0 °F 52% 29.99 in 10.0 mi SSE 9.2 mph 20.7 mph N/A   Clear
2:54 PM 78.1 °F 57.0 °F 48% 29.98 in 10.0 mi Variable 6.9 mph 16.1 mph N/A   Clear
3:54 PM 79.0 °F 55.9 °F 45% 29.95 in 10.0 mi SE 11.5 mph 16.1 mph N/A   Partly Cloudy
4:54 PM 78.1 °F 55.9 °F 46% 29.93 in 10.0 mi South 6.9 mph - N/A   Clear
5:54 PM 77.0 °F 55.9 °F 48% 29.92 in 10.0 mi ESE 11.5 mph 16.1 mph N/A   Clear
6:54 PM 71.1 °F 57.9 °F 63% 29.93 in 10.0 mi Calm Calm - N/A   Clear
7:54 PM 68.0 °F 57.9 °F 70% 29.91 in 10.0 mi Calm Calm - N/A   Partly Cloudy
8:54 PM 63.0 °F 57.0 °F 81% 29.92 in 10.0 mi SSW 3.5 mph - N/A   Clear
9:54 PM 68.0 °F 55.9 °F 65% 29.94 in 10.0 mi ENE 6.9 mph - N/A   Clear
10:54 PM 66.0 °F 55.9 °F 70% 29.95 in 10.0 mi ESE 9.2 mph - N/A   Partly Cloudy
11:54 PM 66.9 °F 57.0 °F 70% 29.92 in 10.0 mi SSE 15.0 mph 24.2 mph N/A   Clear